Home   Weather   San Pedro Sula   Past weeks

Flag for Honduras Past Weather in San Pedro Sula, Honduras — Yesterday and Last 2 Weeks

82 °F

Scattered clouds.

Feels Like: 92 °F
Forecast: N/A
Wind: No wind

Location: La Mesa San Pedro Sula

Current Time: Oct 23, 2016 at 5:55:24 PM

Latest Report: Oct 23, 2016 at 5:00 PM

Visibility: N/A

Pressure: 29.95 "Hg

Humidity: 89%

Dew Point: 79 °F

Location of San Pedro SulaLocation

Past Weather in San Pedro Sula — Graph


San Pedro Sula Temperature Yesterday

Maximum temperature yesterday: 86 °F (at 11:00 AM)
Minimum temperature yesterday: 72 °F (at 4:00 AM)
Average temperature yesterday: 79 °F

High & Low Weather Summary for the Past Weeks

High90 °F (Oct 9, 1:00 PM)100% (Oct 9, 6:00 AM)30.04 "Hg (Oct 9, 6:00 AM)
Low72 °F (Oct 13, 5:00 AM)67% (Oct 10, 12:00 PM)29.74 "Hg (Oct 18, 3:00 PM)
Average79 °F92%29.90 "Hg
* Reported Oct 8 3:00 PM — Oct 23 3:00 PM, San Pedro Sula, Weather by CustomWeather, © 2016

Note: Actual official high and low records may vary slightly from our data, if they occured in-between our weather recording intervals... More about our weather records


San Pedro Sula Weather History for the Previous 24 Hours

Scroll right to see more
Time TempWeatherWind HumidityBarometerVisibility
3:00 PM
Sun, Oct 23
84 °FBroken clouds.6 mph84%29.95 "HgN/A
2:00 PM84 °FBroken clouds.8 mph84%29.95 "HgN/A
1:00 PM86 °FScattered clouds.9 mph70%29.98 "HgN/A
12:00 PM86 °FBroken clouds.9 mph75%30.01 "HgN/A
11:00 AM84 °FPassing clouds.9 mph79%30.04 "HgN/A
10:00 AM84 °FPassing clouds.No wind79%30.04 "HgN/A
7:00 AM73 °FPartly sunny.6 mph100%30.01 "HgN/A
6:00 AM72 °FPartly sunny.6 mph100%30.01 "HgN/A
3:00 AM73 °FPassing clouds.3 mph100%29.98 "HgN/A
2:00 AM73 °FPassing clouds.No wind100%29.98 "HgN/A
1:00 AM73 °FPassing clouds.No wind100%29.98 "HgN/A
12:00 AM75 °FPassing clouds.3 mph94%30.01 "HgN/A
10:00 PM
Sat, Oct 22
75 °FPassing clouds.5 mph100%30.01 "HgN/A
9:00 PM77 °FPassing clouds.2 mph94%30.01 "HgN/A
8:00 PM77 °FPassing clouds.2 mph94%30.01 "HgN/A
7:00 PM79 °FPassing clouds.5 mph94%29.98 "HgN/A
6:00 PM79 °FPassing clouds.3 mph89%29.95 "HgN/A
5:00 PM84 °FScattered clouds.7 mph74%29.92 "HgN/A
Weather by CustomWeather, © 2016

See weather overviewHow to use our weather pages